{"data":{"norad_id":52447,"epoch":"2026-06-30T01:52:35.529600Z","epoch_age_seconds":7245484,"freshness":"OLD","line1":"1 52447U 22048E   26181.07818900  .06998647  26373-5  62318-3 0  9997","line2":"2 52447  97.5521 301.1486 0014850 272.3622  87.5976 16.38798232231847","mean_motion":16.38798232,"eccentricity":0.001485,"inclination_deg":97.5521,"raan_deg":301.1486,"arg_perigee_deg":272.3622,"mean_anomaly_deg":87.5976,"bstar":0.00062318,"rev_number":23184,"period_min":87.869267362012,"perigee_km":159.27882800219,"apogee_km":178.72382883759,"semimajor_km":6547.1383284199,"source":"CELESTRAK","updated_at":"2026-07-01T09:00:20.544364Z"}}